Temp
86 86 84 84 84 84 84 84 84 84 83 83 83 84 84 84 84 84 84 84 84 84 84 84 84 84 84 84 84 84 84 84 84 84 84 84 83 83 84 84 84 86 83
90 88 83 84 84 84 84 84 84 83 84 84 84 84 84 84 84 84 84 84 84 84 84 84 84 84 84 84 84 84 84 83 84 84 84 84 84 83 83 83 84 83 83
91 89 87 84 84 84 84 84 84 84 84 84 84 84 84 84 84 84 84 84 84 84 84 84 84 84 84 83 83 83 83 83 84 84 84 82 85 84 84 84 84 83 83
94 90 89 83 84 84 84 84 84 84 84 84 84 84 84 84 84 84 84 84 84 84 84 84 84 84 84 84 83 83 84 83 83 84 84 80 83 84 82 84 83 83 83
94 94 89 84 84 84 84 84 84 84 84 84 84 84 84 84 84 84 84 84 84 84 84 84 84 84 84 84 84 84 83 83 84 84 84 82 79 78 83 84 83 83 83
96 95 84 84 84 84 84 84 84 84 84 84 84 84 84 84 84 84 84 84 84 84 84 84 84 84 84 84 84 84 84 84 84 85 85 84 81 82 84 84 84 84 83
98 91 87 84 84 84 84 84 84 84 84 84 84 84 84 84 84 84 84 84 84 84 84 84 84 85 85 84 84 84 84 84 84 85 86 85 79 83 84 84 84 84 83
94 91 88 84 84 84 84 84 84 84 84 84 84 84 84 84 84 84 84 84 84 84 84 84 84 84 84 84 84 83 83 84 87 86 86 87 81 82 84 84 83 83 83
96 92 89 88 85 84 84 84 84 84 84 84 84 84 84 84 84 84 84 84 84 84 84 84 84 84 83 83 83 83 84 84 83 84 90 84 81 83 84 83 83 83 83
97 93 90 88 88 87 86 84 84 84 84 84 84 84 84 84 84 84 84 83 84 84 84 84 84 84 84 84 83 83 84 85 84 84 86 83 82 83 84 83 83 83 82
97 94 93 90 89 88 88 86 84 84 84 84 85 84 84 85 88 86 86 87 85 84 84 85 84 84 81 81 82 81 84 84 85 85 85 81 82 84 84 83 83 83 82
95 95 96 94 92 92 93 85 86 87 86 86 86 85 85 88 88 92 89 86 85 85 85 85 84 83 79 79 74 79 81 86 78 79 82 82 82 83 83 82 82 82 82
99 98 97 97 94 95 95 87 89 90 89 87 84 87 88 90 89 91 89 89 85 85 85 85 85 85 81 80 79 84 85 84 78 81 87 83 83 83 83 82 82 82 82
99 99 99 98 93 96 96 92 91 92 91 90 89 88 87 88 87 87 89 90 86 87 84 85 84 85 87 81 79 76 88 85 80 75 83 83 83 83 83 83 82 82 82
97 98 99 95 90 91 91 91 91 92 93 94 91 90 90 88 88 89 88 89 88 89 89 86 85 86 87 80 77 77 82 86 79 75 79 84 83 82 83 83 82 82 82
97 98 100 94 91 93 90 89 90 93 93 93 93 92 89 89 88 89 88 88 88 90 91 88 87 86 86 88 83 82 86 89 81 79 81 85 83 82 82 83 83 83 83
97 98 98 95 94 90 89 90 90 91 96 92 93 93 90 88 87 88 87 88 89 91 92 88 87 86 87 90 88 87 88 90 87 86 88 87 84 82 82 82 82 82 82
98 94 96 98 93 89 89 88 90 91 92 93 93 93 90 89 89 86 87 88 91 88 89 89 88 87 87 87 86 87 86 90 91 91 91 90 87 89 82 82 81 81 82
96 93 93 93 91 89 87 89 89 89 90 92 94 93 88 90 90 87 88 89 92 89 88 90 88 87 85 86 88 87 88 88 89 96 92 90 90 85 85 83 81 81 82
96 94 93 92 89 87 88 86 89 90 91 92 91 93 91 91 90 88 89 88 90 88 88 86 86 87 86 85 91 89 86 89 85 81 85 94 88 88 89 83 80 81 81
96 92 90 90 88 88 87 85 86 88 90 91 92 91 92 92 90 88 89 89 90 87 86 89 86 84 85 86 81 84 86 80 75 71 75 88 90 89 88 86 82 83 84
95 91 89 89 87 88 89 88 88 89 91 92 92 91 91 91 91 91 88 88 88 87 88 88 86 83 84 85 81 81 77 76 73 72 73 74 73 83 88 88 86 84 84
93 90 88 88 88 87 88 89 89 90 89 89 90 90 91 89 90 89 89 88 87 87 86 86 86 83 81 84 84 79 75 75 80 80 82 76 75 74 83 89 88 85 84
96 95 90 89 88 88 87 88 85 86 86 89 89 91 91 89 89 90 88 88 86 87 85 86 88 85 84 81 84 88 82 81 74 76 82 83 82 80 82 88 73 71 76
99 96 94 89 88 88 87 86 88 86 89 91 91 89 87 88 89 90 89 87 86 87 85 84 83 83 84 83 82 82 82 80 80 75 76 80 85 89 89 81 70 68 72
100 99 96 88 86 88 86 86 85 84 85 88 89 90 91 91 91 89 91 88 88 87 86 86 85 84 84 83 84 82 82 81 78 75 73 77 80 85 91 87 82 76 81
MSLP
1009.91 1011.04 1011.79 1012.21 1012.53 1012.98 1013.36 1013.65 1013.94 1014.19 1014.43 1014.61 1014.85 1015.09 1015.20 1015.32 1015.53 1015.70 1015.77 1015.85 1015.92 1016.03 1016.14 1016.26 1016.30 1016.30 1016.25 1016.25 1016.31 1016.37 1016.35 1016.35 1016.30 1016.35 1016.36 1016.39 1016.45 1016.46 1016.63 1016.79 1017.00 1017.05 1017.27
1009.51 1010.83 1011.76 1012.19 1012.63 1013.08 1013.43 1013.79 1014.09 1014.32 1014.57 1014.81 1015.13 1015.34 1015.46 1015.63 1015.75 1015.85 1015.97 1016.05 1016.21 1016.30 1016.35 1016.40 1016.40 1016.39 1016.36 1016.36 1016.37 1016.41 1016.45 1016.38 1016.35 1016.33 1016.37 1016.43 1016.58 1016.57 1016.66 1016.91 1016.92 1017.23 1017.46
1009.35 1010.67 1011.62 1012.18 1012.62 1013.03 1013.43 1013.85 1014.16 1014.46 1014.76 1015.00 1015.27 1015.49 1015.70 1015.85 1015.97 1016.12 1016.15 1016.23 1016.27 1016.35 1016.39 1016.43 1016.43 1016.43 1016.38 1016.34 1016.33 1016.43 1016.37 1016.32 1016.21 1016.33 1016.35 1016.54 1016.53 1016.89 1016.85 1016.81 1017.09 1017.45 1017.64
1009.08 1010.67 1011.41 1012.21 1012.63 1013.04 1013.49 1013.89 1014.27 1014.57 1014.89 1015.14 1015.38 1015.59 1015.85 1016.04 1016.15 1016.23 1016.25 1016.29 1016.38 1016.45 1016.45 1016.51 1016.53 1016.50 1016.53 1016.59 1016.59 1016.53 1016.49 1016.31 1015.97 1016.00 1015.97 1016.41 1017.03 1017.24 1017.14 1016.67 1017.03 1017.31 1017.58
1009.14 1010.10 1011.35 1012.23 1012.69 1013.06 1013.51 1013.91 1014.31 1014.64 1014.97 1015.26 1015.49 1015.77 1015.98 1016.13 1016.19 1016.26 1016.33 1016.37 1016.38 1016.32 1016.39 1016.44 1016.53 1016.59 1016.64 1016.63 1016.70 1016.64 1016.56 1016.37 1016.00 1015.85 1015.45 1015.77 1016.68 1016.94 1017.01 1016.63 1016.91 1017.19 1017.50
1008.88 1009.70 1011.69 1012.31 1012.78 1013.17 1013.59 1013.98 1014.36 1014.74 1015.08 1015.37 1015.63 1015.88 1016.07 1016.14 1016.20 1016.27 1016.33 1016.30 1016.19 1016.24 1016.21 1016.23 1016.41 1016.41 1016.50 1016.53 1016.51 1016.57 1016.55 1016.39 1016.02 1015.51 1015.09 1015.38 1016.07 1016.56 1016.53 1016.42 1016.72 1017.01 1017.28
1008.52 1010.29 1011.61 1012.37 1012.85 1013.24 1013.62 1014.01 1014.40 1014.84 1015.19 1015.49 1015.76 1015.93 1016.11 1016.16 1016.22 1016.31 1016.20 1016.11 1015.98 1015.98 1016.04 1016.13 1016.30 1016.26 1016.26 1016.39 1016.49 1016.52 1016.53 1016.48 1016.19 1015.41 1014.84 1014.94 1015.12 1015.62 1016.06 1016.17 1016.47 1016.77 1017.04
1008.70 1010.33 1011.63 1012.49 1012.98 1013.38 1013.75 1014.11 1014.48 1014.89 1015.21 1015.55 1015.78 1015.95 1016.11 1016.19 1016.21 1016.21 1016.01 1015.93 1015.93 1015.97 1016.25 1016.21 1016.36 1016.39 1016.15 1016.27 1016.43 1016.57 1016.70 1016.60 1016.11 1015.49 1014.90 1014.77 1014.94 1015.39 1015.82 1015.85 1016.07 1016.36 1016.67
1008.74 1010.08 1011.39 1012.34 1013.03 1013.47 1013.81 1014.17 1014.54 1014.85 1015.17 1015.49 1015.73 1015.92 1016.01 1016.02 1015.99 1015.85 1015.69 1015.77 1015.83 1015.99 1015.81 1015.79 1015.82 1015.88 1015.85 1016.18 1016.26 1016.07 1015.95 1016.15 1015.99 1015.47 1014.87 1014.98 1015.07 1015.32 1015.69 1015.79 1016.04 1016.21 1016.41
1008.40 1009.92 1011.17 1012.09 1012.79 1013.22 1013.76 1014.22 1014.54 1014.83 1015.14 1015.43 1015.67 1015.80 1015.81 1015.66 1015.57 1015.51 1015.46 1015.47 1015.58 1015.64 1015.43 1015.47 1015.37 1015.91 1016.14 1015.87 1015.45 1015.32 1015.47 1015.41 1015.70 1015.50 1014.94 1015.11 1015.03 1015.13 1015.39 1015.78 1015.96 1016.06 1016.14
1007.97 1009.44 1010.61 1011.57 1012.29 1012.71 1013.31 1014.07 1014.50 1014.83 1015.09 1015.31 1015.50 1015.61 1015.51 1015.12 1014.72 1014.96 1015.06 1014.98 1015.19 1015.22 1015.01 1015.31 1015.81 1015.97 1015.83 1015.66 1014.57 1014.52 1014.90 1014.89 1014.76 1014.44 1014.57 1014.84 1014.92 1014.81 1015.16 1015.65 1015.82 1015.85 1015.86
1007.26 1008.74 1009.82 1010.73 1011.48 1012.05 1012.38 1013.53 1014.10 1014.47 1014.76 1014.95 1014.94 1014.95 1014.96 1014.27 1014.07 1014.28 1014.34 1014.57 1014.71 1014.83 1014.67 1015.17 1015.74 1015.10 1014.87 1015.79 1014.88 1014.39 1013.88 1013.58 1014.43 1014.34 1013.86 1014.14 1014.46 1014.49 1014.58 1015.13 1015.54 1015.66 1015.56
1006.58 1007.77 1009.01 1009.76 1010.48 1011.06 1011.41 1012.90 1013.36 1013.56 1013.96 1014.22 1014.37 1014.30 1014.09 1013.73 1013.65 1013.73 1013.76 1013.86 1014.31 1014.49 1014.60 1014.45 1014.82 1015.06 1015.01 1014.86 1014.58 1013.79 1012.79 1013.65 1014.54 1013.67 1013.16 1013.25 1013.76 1014.12 1014.14 1014.63 1015.12 1015.29 1015.29
1006.23 1007.16 1008.17 1009.07 1010.04 1010.56 1010.93 1011.85 1012.43 1012.59 1012.95 1013.25 1013.52 1013.71 1013.78 1013.79 1013.85 1013.75 1013.47 1013.29 1013.73 1013.61 1013.85 1013.67 1013.95 1014.49 1014.02 1013.51 1014.41 1015.34 1013.15 1012.71 1013.74 1013.23 1013.73 1013.48 1013.59 1013.51 1013.59 1013.93 1014.48 1014.76 1014.82
1006.20 1006.95 1007.68 1008.72 1009.75 1010.37 1010.83 1011.24 1011.67 1011.91 1012.18 1012.31 1012.72 1013.22 1013.31 1013.57 1013.55 1013.35 1013.37 1013.47 1013.39 1013.04 1012.77 1012.86 1013.39 1013.49 1013.40 1013.28 1014.53 1014.21 1013.37 1012.78 1012.92 1012.60 1013.17 1013.31 1012.97 1013.13 1013.21 1013.33 1013.79 1014.09 1014.22
1006.23 1006.95 1007.57 1008.83 1009.67 1010.43 1010.85 1011.32 1011.49 1011.45 1011.63 1011.93 1012.07 1012.35 1012.85 1013.15 1013.26 1013.24 1013.39 1013.37 1013.11 1012.69 1012.42 1012.63 1013.02 1013.17 1013.01 1012.57 1013.00 1013.16 1012.42 1012.23 1012.78 1012.83 1012.80 1012.60 1012.48 1012.59 1012.68 1012.76 1013.06 1013.31 1013.47
1006.09 1006.79 1007.50 1008.70 1009.84 1010.55 1010.88 1011.36 1011.55 1011.45 1011.43 1011.69 1011.99 1012.15 1012.56 1012.98 1013.22 1013.25 1013.30 1013.01 1012.64 1012.31 1012.27 1012.29 1012.39 1012.56 1012.73 1012.47 1012.32 1012.27 1012.21 1011.96 1012.16 1012.26 1012.04 1011.98 1011.95 1012.02 1012.07 1012.47 1012.55 1012.57 1012.67
1005.75 1006.63 1007.38 1008.37 1009.56 1010.56 1010.99 1011.43 1011.69 1011.54 1011.27 1011.35 1011.45 1011.60 1012.04 1012.57 1012.91 1013.13 1013.07 1012.68 1012.30 1012.29 1012.19 1012.11 1011.99 1012.08 1012.34 1012.55 1012.52 1012.18 1011.91 1011.72 1011.16 1010.88 1010.73 1010.95 1011.51 1011.36 1011.68 1011.89 1012.13 1012.20 1012.17
1005.48 1006.53 1007.33 1008.20 1009.17 1010.41 1010.99 1011.32 1011.60 1011.30 1011.40 1011.09 1011.03 1011.21 1011.79 1012.18 1012.61 1012.97 1012.80 1012.26 1011.91 1012.19 1012.21 1011.96 1011.83 1012.05 1012.47 1012.55 1012.25 1011.69 1011.34 1011.23 1011.02 1010.41 1010.63 1010.65 1010.96 1011.75 1011.87 1011.54 1011.56 1011.61 1011.75
1005.33 1006.37 1007.29 1008.05 1008.89 1009.87 1010.67 1011.21 1011.23 1011.20 1011.05 1011.03 1011.05 1010.96 1011.19 1011.62 1012.12 1012.46 1012.47 1012.29 1011.91 1012.18 1012.12 1012.31 1012.30 1012.36 1012.59 1012.58 1012.27 1012.02 1011.64 1011.51 1011.56 1011.88 1011.49 1009.95 1009.67 1010.53 1010.78 1010.89 1011.37 1011.17 1011.22
1005.08 1006.14 1007.11 1007.86 1008.56 1009.38 1010.05 1010.66 1010.78 1010.73 1010.76 1010.80 1010.83 1010.78 1010.88 1011.18 1011.63 1011.91 1012.31 1012.15 1012.01 1012.07 1011.95 1011.89 1012.16 1012.44 1012.46 1012.11 1012.06 1012.04 1011.70 1011.99 1011.49 1010.80 1010.56 1010.97 1010.81 1009.15 1009.24 1009.92 1010.40 1010.41 1010.35
1004.60 1005.77 1006.80 1007.53 1008.25 1008.87 1009.48 1009.95 1010.21 1010.28 1010.19 1010.31 1010.35 1010.30 1010.57 1010.95 1011.28 1011.47 1011.87 1011.95 1011.87 1011.86 1011.93 1011.89 1011.97 1012.21 1012.29 1011.92 1012.03 1011.99 1012.25 1012.65 1012.21 1012.04 1011.33 1011.91 1010.37 1009.52 1009.54 1009.72 1009.21 1009.44 1009.52
1004.03 1005.30 1006.38 1007.24 1007.87 1008.53 1009.01 1009.48 1009.66 1009.79 1009.87 1009.85 1009.92 1010.12 1010.49 1010.77 1011.06 1011.29 1011.39 1011.71 1011.81 1011.89 1011.87 1011.79 1011.76 1011.92 1012.05 1011.89 1011.74 1011.83 1011.89 1012.03 1011.59 1011.60 1011.29 1010.53 1009.67 1010.07 1010.43 1010.17 1008.72 1008.85 1008.45
1003.27 1004.62 1005.85 1006.90 1007.52 1008.29 1008.82 1008.94 1009.26 1009.47 1009.49 1009.51 1009.54 1009.70 1009.90 1010.13 1010.53 1010.80 1010.99 1011.38 1011.61 1011.85 1011.85 1011.79 1011.68 1011.50 1011.59 1011.68 1011.42 1010.97 1011.18 1011.27 1011.31 1010.96 1010.59 1010.23 1009.99 1009.73 1009.62 1009.29 1010.30 1010.43 1010.87
1002.48 1003.66 1004.91 1006.17 1006.91 1007.57 1008.27 1008.59 1008.74 1008.99 1009.08 1008.91 1009.00 1009.06 1009.37 1009.64 1010.06 1010.25 1010.45 1010.87 1011.19 1011.45 1011.51 1011.44 1011.37 1011.38 1011.32 1011.22 1011.20 1011.11 1010.90 1010.83 1010.99 1010.81 1010.21 1009.87 1009.14 1008.14 1007.55 1007.67 1008.19 1010.01 1008.51
1001.61 1002.63 1003.83 1005.11 1006.04 1006.72 1007.42 1007.97 1008.38 1008.52 1008.78 1008.66 1008.66 1008.60 1008.83 1009.05 1009.40 1009.59 1009.75 1010.13 1010.43 1010.69 1010.90 1011.00 1011.12 1011.15 1011.11 1011.01 1010.89 1010.80 1010.70 1010.60 1010.43 1010.80 1010.44 1009.71 1008.78 1007.49 1006.83 1006.44 1007.16 1007.32 1007.47
Wind_Speed
18 18 16 15 15 15 16 15 16 15 15 14 13 13 12 12 13 12 11 11 11 11 10 10 9 9 9 8 8 9 8 7 6 5 4 6 6 6 5 5 3 10 12
23 20 17 16 15 15 15 14 15 15 14 13 12 11 11 11 11 10 9 10 10 9 9 8 8 7 7 7 6 6 6 6 4 1 2 4 6 6 6 5 5 11 10
24 21 18 16 15 16 14 15 14 15 14 13 11 10 9 9 9 9 8 8 7 7 7 6 6 6 5 4 4 4 3 2 4 4 4 3 7 6 6 8 9 10 9
24 20 19 16 15 16 15 15 14 15 14 12 11 10 9 8 8 7 6 6 5 5 4 5 3 2 2 2 2 2 2 3 6 6 6 6 3 3 5 10 8 8 9
23 21 19 16 15 16 16 15 14 14 13 12 11 10 9 8 6 6 4 3 3 2 2 2 2 2 2 2 2 3 4 6 9 9 6 3 9 13 10 11 9 8 8
23 22 19 17 15 15 16 15 14 14 12 11 10 9 8 6 5 4 2 1 1 1 2 2 2 2 3 4 5 5 6 7 10 9 8 6 11 14 11 9 5 4 8
22 21 19 17 16 15 16 15 14 13 12 10 10 9 7 6 4 3 3 4 4 4 4 5 4 4 6 6 7 7 8 9 9 10 4 8 11 14 13 11 9 7 10
23 21 18 17 16 15 16 15 14 13 12 11 9 8 6 5 5 6 7 6 6 6 6 8 6 7 7 6 7 8 9 11 10 8 8 2 13 16 15 13 11 10 12
24 21 17 16 15 16 15 14 14 13 12 10 8 7 6 7 9 10 10 9 9 7 8 9 8 6 9 7 9 11 11 11 8 8 6 4 17 16 14 12 10 10 11
21 20 18 15 15 13 13 14 13 12 11 10 8 8 8 11 13 14 11 12 11 9 10 10 12 10 10 10 13 16 12 11 8 8 6 4 14 14 13 12 11 10 11
20 19 17 17 14 13 12 12 12 12 11 10 9 10 11 9 12 15 13 9 13 12 12 11 11 7 13 7 12 15 15 5 7 4 5 13 13 13 12 12 12 11 12
23 22 19 18 17 15 13 14 10 10 8 8 9 10 9 12 5 7 10 13 13 13 13 12 10 5 15 3 7 13 5 8 4 3 2 15 14 13 14 13 12 11 12
21 15 19 17 16 16 10 10 6 6 7 8 10 8 10 4 3 2 5 7 6 10 6 10 7 5 10 10 4 9 6 2 4 6 6 16 14 14 14 13 13 13 12
17 19 19 18 13 13 8 8 9 8 8 7 9 8 3 2 4 4 3 2 6 5 9 7 3 6 6 6 7 7 11 5 3 4 5 12 15 15 14 14 14 14 14
14 14 16 16 12 9 5 6 8 7 7 7 8 10 5 6 3 2 3 3 4 4 4 4 4 1 5 5 7 12 11 8 1 1 4 17 18 15 15 16 15 15 15
15 15 15 16 10 6 6 5 3 4 5 3 4 8 7 3 3 3 2 4 5 5 3 3 1 3 5 6 8 10 6 4 7 7 7 9 17 18 18 17 16 16 15
14 16 15 15 13 6 7 4 3 4 5 5 4 4 6 6 5 3 5 4 4 2 1 4 5 6 6 6 3 6 5 7 6 9 9 7 9 18 18 17 17 18 16
17 14 14 14 16 10 6 6 5 5 4 5 4 5 7 6 4 5 6 6 5 1 3 4 4 3 2 4 4 5 2 5 4 6 7 2 6 6 11 17 18 17 17
16 14 12 12 17 14 9 7 8 8 5 5 4 4 10 8 7 5 6 6 2 3 4 4 3 4 4 4 5 5 4 3 5 8 3 4 3 5 5 15 19 17 17
16 14 10 11 12 15 9 7 7 7 6 6 4 4 8 6 7 7 6 6 3 4 5 3 4 4 2 6 8 5 5 5 9 9 12 4 8 7 7 6 8 8 17
17 15 13 13 9 11 9 9 8 8 7 6 6 7 5 5 9 6 5 5 4 5 6 1 2 4 5 5 2 4 6 6 9 3 10 13 6 10 10 6 7 7 9
16 16 14 11 11 10 9 9 8 7 6 7 6 6 7 5 5 5 6 5 5 3 3 3 3 3 4 5 2 1 3 0 4 6 10 8 13 14 2 7 8 7 5
18 17 15 13 13 11 9 7 5 5 5 5 5 5 7 7 6 6 5 5 5 3 4 3 4 6 4 5 6 4 2 4 5 6 9 6 8 4 4 10 10 3 7
18 17 17 16 13 13 12 9 8 7 6 6 5 5 6 11 10 9 7 6 5 4 5 4 5 3 4 4 5 6 5 5 3 6 3 4 11 12 12 6 8 10 22
18 19 17 17 15 14 14 11 9 7 7 5 5 7 8 8 10 10 9 8 7 6 6 7 6 5 4 4 5 5 7 4 6 4 10 7 6 8 8 8 12 15 28
18 18 19 20 17 16 16 15 11 12 10 6 6 4 7 6 9 11 10 8 8 7 7 5 5 6 6 6 6 7 7 7 6 7 8 8 10 8 10 5 13 15 14
Wind_Direction
137 143 143 144 138 140 135 132 132 130 130 130 122 109 106 103 98 96 93 89 84 79 75 69 62 55 52 45 37 36 36 37 44 74 80 103 121 119 108 105 130 124 126
138 145 147 145 142 145 138 138 136 135 135 136 132 124 116 110 104 100 93 86 79 74 69 67 67 67 60 54 48 45 34 15 3 30 174 164 148 146 132 95 357 111 124
140 142 150 146 149 150 146 142 140 138 140 136 134 134 128 121 112 101 93 86 85 76 66 60 59 63 65 60 50 54 47 9 306 298 263 219 167 177 143 109 101 117 126
139 148 147 148 152 152 151 145 145 142 143 137 138 135 132 124 116 110 103 96 81 70 60 51 52 56 59 47 22 9 347 305 283 281 251 126 142 216 190 132 126 139 143
141 154 136 149 150 151 151 149 149 147 146 144 141 136 136 130 129 120 113 101 87 70 47 27 15 352 342 319 308 299 301 288 283 287 274 263 150 207 205 145 150 160 176
151 133 138 144 147 150 150 152 151 151 150 152 148 144 144 145 139 132 146 162 223 326 321 308 309 288 293 289 279 277 269 272 283 265 240 196 152 174 185 159 167 187 175
144 130 139 142 143 147 150 150 148 149 153 157 153 153 156 161 159 183 225 237 248 247 270 281 294 297 290 291 284 270 267 267 273 283 265 154 149 175 179 171 186 199 179
126 140 140 138 141 142 144 144 145 150 153 158 162 164 173 182 201 221 239 252 268 272 296 295 303 309 302 303 289 274 272 267 280 283 278 186 165 173 181 167 185 192 180
138 136 142 143 145 144 145 147 150 152 160 167 169 178 201 214 224 230 234 239 251 275 279 289 286 267 283 300 305 291 261 258 256 274 298 151 158 174 169 160 179 184 192
138 143 146 146 154 159 155 154 155 159 168 174 182 197 218 233 237 235 237 239 235 243 263 276 275 290 310 320 336 307 275 255 251 262 271 151 169 169 166 173 183 193 199
139 146 153 155 160 162 158 162 162 167 178 188 201 215 224 241 231 224 225 245 213 233 251 259 280 297 326 303 288 287 272 234 226 229 252 161 172 171 174 188 198 201 207
144 152 159 163 166 171 171 154 179 181 193 198 207 204 218 246 195 205 173 201 208 224 242 252 247 221 259 260 221 275 234 212 236 264 328 176 176 179 181 191 205 213 212
151 156 158 169 167 172 166 157 179 184 196 198 214 211 224 241 1 234 212 208 207 223 228 231 220 200 211 246 243 244 231 279 184 240 205 166 178 192 186 190 207 217 219
167 161 164 162 159 166 162 161 176 195 191 194 194 202 250 309 223 245 260 319 198 165 210 231 193 186 198 233 36 351 263 164 114 98 285 178 196 189 189 194 206 217 219
171 164 161 146 153 163 171 171 177 205 176 203 168 185 191 210 249 323 337 344 310 292 231 175 169 173 252 195 136 205 259 99 151 278 201 222 191 191 193 198 206 218 220
170 164 153 136 146 143 153 156 221 187 171 237 194 172 167 220 252 277 254 221 235 245 302 33 15 246 261 268 189 210 250 182 179 207 228 208 192 198 198 201 206 212 216
166 165 163 146 159 177 163 166 187 252 208 181 221 121 166 169 216 269 292 290 279 250 144 248 241 239 236 260 264 209 212 232 189 214 237 196 203 209 195 204 209 207 211
166 166 165 173 160 183 173 170 207 238 248 200 213 193 167 172 238 199 244 250 242 235 276 263 236 255 8 346 313 293 247 233 286 224 219 193 202 214 197 206 212 214 213
160 162 166 171 160 171 181 184 213 215 235 262 221 209 162 178 198 217 266 270 259 249 267 287 341 21 6 331 286 254 262 282 265 268 203 152 217 170 210 208 205 212 218
155 161 179 169 163 161 176 202 202 232 216 211 251 241 156 180 192 192 237 269 300 286 279 50 20 3 327 272 272 3 325 301 20 350 340 251 199 193 223 151 190 211 221
160 163 180 169 168 164 173 187 215 206 215 219 216 221 208 193 189 198 243 272 223 230 251 34 356 325 280 281 26 337 315 52 98 300 289 289 346 190 198 179 179 204 210
169 169 176 181 177 177 184 189 206 220 215 210 210 207 188 203 219 228 203 257 283 312 326 209 206 246 290 293 256 234 297 227 312 215 257 117 209 274 275 198 189 209 187
172 171 176 191 177 183 191 203 204 212 230 205 211 202 184 197 216 229 248 222 252 320 284 286 223 223 249 291 266 208 281 236 289 184 230 227 219 260 353 256 200 223 190
175 173 173 185 186 185 210 194 206 208 207 229 195 204 198 187 197 215 222 220 233 254 264 266 281 256 241 262 280 284 225 234 263 307 211 245 210 223 212 213 38 352 301
185 176 180 180 191 188 198 225 191 203 223 214 218 208 194 187 194 205 211 211 214 217 236 240 262 266 265 250 261 286 289 278 236 258 292 286 281 281 249 160 147 201 224
188 183 181 179 190 192 189 207 227 191 230 225 222 230 180 200 190 204 209 204 205 207 221 236 250 244 251 258 274 291 282 279 287 286 290 296 289 296 295 219 183 211 230